SBI160 UNAA-UNKL

Flight info

Callsign SBI160
Flight time 0h 35m
Altitude 25000
Route SELTI1D SELTI B951 ROGMA ROGMA2Z
Aircraft A320/M-SDE3FGHIRWY/LB1

Departure

Time 2026-05-08 15:29
Airport Abakan International Airport (UNAA)

Arrival

Time 2026-05-08 16:05
Airport Krasnoyarsk International Airport (UNKL)
Time Latitude Longitude Altitude Speed Heading
2026-05-08 14:38 53.75098 91.39851 814 ft 0 kts 161°
2026-05-08 15:24 53.75075 91.39851 825 ft 6 kts 187°
2026-05-08 15:25 53.75050 91.39801 825 ft 5 kts 245°
2026-05-08 15:25 53.75046 91.39708 825 ft 10 kts 298°
2026-05-08 15:25 53.75107 91.39654 824 ft 9 kts 343°
2026-05-08 15:25 53.75137 91.39642 824 ft 0 kts 349°
2026-05-08 15:27 53.75161 91.39626 824 ft 10 kts 340°
2026-05-08 15:27 53.75233 91.39576 824 ft 7 kts 328°
2026-05-08 15:27 53.75229 91.39479 824 ft 14 kts 214°
2026-05-08 15:27 53.75139 91.39401 824 ft 13 kts 207°
2026-05-08 15:28 53.75086 91.39358 824 ft 1 kts 204°
2026-05-08 15:28 53.75082 91.39355 824 ft 0 kts 204°
2026-05-08 15:28 53.75078 91.39352 824 ft 5 kts 203°
2026-05-08 15:28 53.74838 91.39164 823 ft 75 kts 204°
2026-05-08 15:29 53.74185 91.38656 824 ft 132 kts 204°
2026-05-08 15:29 53.73206 91.37883 935 ft 172 kts 205°
2026-05-08 15:29 53.72054 91.37015 1438 ft 187 kts 205°
2026-05-08 15:29 53.70855 91.36124 2199 ft 189 kts 205°
2026-05-08 15:30 53.69655 91.35242 2734 ft 201 kts 207°
2026-05-08 15:30 53.68313 91.34196 3127 ft 222 kts 207°
2026-05-08 15:30 53.66880 91.33040 3705 ft 235 kts 211°
2026-05-08 15:30 53.65644 91.31141 4165 ft 255 kts 241°
2026-05-08 15:31 53.65144 91.28253 4868 ft 264 kts 272°
2026-05-08 15:31 53.65634 91.25299 5738 ft 267 kts 304°
2026-05-08 15:31 53.67004 91.23226 6619 ft 270 kts 336°
2026-05-08 15:31 53.68795 91.22723 7432 ft 275 kts
2026-05-08 15:32 53.70678 91.23440 8338 ft 279 kts 14°
2026-05-08 15:32 53.72569 91.24297 9230 ft 284 kts 14°
2026-05-08 15:32 53.74489 91.25189 10074 ft 289 kts 14°
2026-05-08 15:32 53.76499 91.26119 10463 ft 311 kts 14°
2026-05-08 15:33 53.78671 91.27111 10714 ft 335 kts 14°
2026-05-08 15:33 53.80969 91.28157 11217 ft 347 kts 14°
2026-05-08 15:33 53.83244 91.29196 11927 ft 352 kts 13°
2026-05-08 15:33 53.85626 91.30281 12715 ft 355 kts 13°
2026-05-08 15:34 53.88030 91.31370 13507 ft 359 kts 13°
2026-05-08 15:34 53.90452 91.32466 14213 ft 362 kts 12°
2026-05-08 15:34 53.92870 91.33565 14873 ft 366 kts 12°
2026-05-08 15:34 53.95341 91.34687 15533 ft 369 kts 12°
2026-05-08 15:35 53.97838 91.35816 16193 ft 373 kts 12°
2026-05-08 15:35 54.00264 91.36914 16825 ft 376 kts 12°
2026-05-08 15:35 54.02810 91.38073 17481 ft 380 kts 12°
2026-05-08 15:35 54.05375 91.39246 18130 ft 384 kts 12°
2026-05-08 15:36 54.07965 91.40434 18713 ft 387 kts 12°
2026-05-08 15:36 54.10577 91.41638 19284 ft 391 kts 12°
2026-05-08 15:36 54.13216 91.42853 19860 ft 394 kts 12°
2026-05-08 15:36 54.15874 91.44068 20437 ft 397 kts 12°
2026-05-08 15:37 54.18474 91.45222 20998 ft 399 kts
2026-05-08 15:37 54.21218 91.45955 21536 ft 400 kts
2026-05-08 15:37 54.23950 91.46587 22067 ft 403 kts
2026-05-08 15:37 54.26750 91.47244 22600 ft 406 kts
2026-05-08 15:38 54.29554 91.47904 23117 ft 409 kts
2026-05-08 15:38 54.32385 91.48563 23613 ft 411 kts
2026-05-08 15:38 54.35231 91.49221 24024 ft 414 kts
2026-05-08 15:38 54.38006 91.49842 24412 ft 416 kts
2026-05-08 15:39 54.40898 91.50064 24792 ft 416 kts 358°
2026-05-08 15:39 54.43796 91.50204 24923 ft 417 kts 358°
2026-05-08 15:39 54.46697 91.50359 24954 ft 417 kts 359°
2026-05-08 15:39 54.49598 91.50521 24954 ft 416 kts 359°
2026-05-08 15:40 54.52493 91.50685 24954 ft 416 kts 359°
2026-05-08 15:40 54.55347 91.50836 24956 ft 416 kts 358°
2026-05-08 15:40 54.58148 91.50976 24951 ft 415 kts 358°
2026-05-08 15:40 54.61039 91.51118 24950 ft 415 kts 359°
2026-05-08 15:41 54.63922 91.51263 24951 ft 415 kts 359°
2026-05-08 15:41 54.66804 91.51410 24950 ft 415 kts 359°
2026-05-08 15:41 54.69694 91.51562 24953 ft 415 kts 359°
2026-05-08 15:41 54.72579 91.51717 24949 ft 414 kts 359°
2026-05-08 15:42 54.75461 91.51866 24949 ft 414 kts 359°
2026-05-08 15:42 54.78244 91.52001 24949 ft 414 kts 359°
2026-05-08 15:42 54.81126 91.52145 24950 ft 414 kts 359°
2026-05-08 15:42 54.84004 91.52294 24950 ft 414 kts 359°
2026-05-08 15:43 54.86878 91.52444 24949 ft 413 kts 359°
2026-05-08 15:43 54.89760 91.52595 24944 ft 413 kts 359°
2026-05-08 15:43 54.92634 91.52751 24944 ft 413 kts 359°
2026-05-08 15:43 54.95504 91.52907 24945 ft 413 kts 359°
2026-05-08 15:44 54.98283 91.53053 24944 ft 413 kts 359°
2026-05-08 15:44 55.01153 91.53188 24942 ft 413 kts 359°
2026-05-08 15:44 55.04026 91.53308 24942 ft 412 kts 359°
2026-05-08 15:44 55.06898 91.53429 24940 ft 412 kts 359°
2026-05-08 15:45 55.09762 91.53554 24939 ft 412 kts 359°
2026-05-08 15:45 55.12597 91.53680 24939 ft 412 kts 359°
2026-05-08 15:45 55.15464 91.53807 24938 ft 412 kts 359°
2026-05-08 15:45 55.18233 91.53926 24935 ft 412 kts 359°
2026-05-08 15:46 55.21100 91.54049 24931 ft 412 kts 359°
2026-05-08 15:46 55.23967 91.54153 24932 ft 412 kts 358°
2026-05-08 15:46 55.26834 91.54250 24931 ft 412 kts 358°
2026-05-08 15:46 55.29702 91.54378 24931 ft 412 kts 359°
2026-05-08 15:47 55.32569 91.54526 24935 ft 413 kts 359°
2026-05-08 15:47 55.35442 91.54678 24932 ft 413 kts 359°
2026-05-08 15:47 55.38307 91.55306 24934 ft 417 kts
2026-05-08 15:47 55.40985 91.56786 24929 ft 422 kts 19°
2026-05-08 15:48 55.45924 91.62397 24707 ft 431 kts 39°
2026-05-08 15:48 55.48063 91.66101 23991 ft 431 kts 41°
2026-05-08 15:48 55.50165 91.69844 23331 ft 428 kts 42°
2026-05-08 15:49 55.52240 91.73594 22627 ft 425 kts 42°
2026-05-08 15:49 55.54289 91.77313 21986 ft 421 kts 42°
2026-05-08 15:49 55.56265 91.80896 21399 ft 417 kts 42°
2026-05-08 15:49 55.58288 91.84548 20806 ft 413 kts 42°
2026-05-08 15:50 55.60297 91.88159 20239 ft 409 kts 42°
2026-05-08 15:50 55.62288 91.91733 19688 ft 406 kts 42°
2026-05-08 15:50 55.64268 91.95291 19169 ft 403 kts 42°
2026-05-08 15:50 55.66230 91.98824 18928 ft 402 kts 43°
2026-05-08 15:51 55.68168 92.02322 18902 ft 402 kts 42°
2026-05-08 15:51 55.70068 92.05754 18909 ft 403 kts 42°
2026-05-08 15:51 55.72032 92.09321 18909 ft 403 kts 43°
2026-05-08 15:51 55.73992 92.12884 18910 ft 404 kts 43°
2026-05-08 15:52 55.76034 92.16303 18908 ft 402 kts 35°
2026-05-08 15:52 55.78309 92.19140 18909 ft 400 kts 30°
2026-05-08 15:52 55.80622 92.21874 18723 ft 397 kts 30°
2026-05-08 15:52 55.82911 92.24587 18173 ft 394 kts 30°
2026-05-08 15:53 55.85118 92.27209 17610 ft 392 kts 31°
2026-05-08 15:53 55.87379 92.29900 17036 ft 389 kts 31°
2026-05-08 15:53 55.89630 92.32576 16469 ft 387 kts 31°
2026-05-08 15:53 55.91854 92.35220 15910 ft 386 kts 31°
2026-05-08 15:54 55.94089 92.37881 15368 ft 383 kts 31°
2026-05-08 15:54 55.96302 92.40523 14819 ft 382 kts 31°
2026-05-08 15:54 55.98508 92.43164 14236 ft 381 kts 31°
2026-05-08 15:54 56.00644 92.45727 13681 ft 381 kts 31°
2026-05-08 15:55 56.02831 92.48350 13180 ft 376 kts 31°
2026-05-08 15:55 56.07323 92.52779 12383 ft 354 kts 19°
2026-05-08 15:55 56.09500 92.54439 12249 ft 327 kts 19°
2026-05-08 15:56 56.11532 92.56008 11898 ft 311 kts 19°
2026-05-08 15:56 56.13491 92.57520 11445 ft 303 kts 19°
2026-05-08 15:56 56.15325 92.58927 11031 ft 299 kts 19°
2026-05-08 15:56 56.17229 92.60386 10545 ft 296 kts 19°
2026-05-08 15:57 56.19119 92.61836 9870 ft 295 kts 19°
2026-05-08 15:57 56.20995 92.63278 9293 ft 290 kts 19°
2026-05-08 15:57 56.22828 92.64732 8811 ft 287 kts 24°
2026-05-08 15:57 56.24336 92.67095 8290 ft 294 kts 53°
2026-05-08 15:58 56.25049 92.70513 8034 ft 293 kts 82°
2026-05-08 15:58 56.24846 92.74021 7547 ft 295 kts 110°
2026-05-08 15:58 56.24059 92.77375 7057 ft 289 kts 114°
2026-05-08 15:58 56.23052 92.80436 6564 ft 282 kts 136°
2026-05-08 15:59 56.21480 92.82398 6066 ft 273 kts 163°
2026-05-08 15:59 56.19657 92.82947 5552 ft 263 kts 188°
2026-05-08 15:59 56.17897 92.82102 5052 ft 261 kts 207°
2026-05-08 15:59 56.16268 92.80825 4551 ft 252 kts 207°
2026-05-08 16:00 56.14732 92.79632 4060 ft 246 kts 206°
2026-05-08 16:00 56.13181 92.78433 3554 ft 240 kts 206°
2026-05-08 16:00 56.11831 92.76890 3081 ft 228 kts 235°
2026-05-08 16:00 56.11394 92.74406 2970 ft 200 kts 279°
2026-05-08 16:01 56.11828 92.72207 3042 ft 180 kts 293°
2026-05-08 16:01 56.12290 92.70239 2999 ft 160 kts 292°
2026-05-08 16:01 56.12709 92.68476 2883 ft 148 kts 292°
2026-05-08 16:01 56.13097 92.66853 2728 ft 143 kts 293°
2026-05-08 16:02 56.13481 92.65253 2553 ft 140 kts 292°
2026-05-08 16:02 56.13865 92.63648 2375 ft 140 kts 293°
2026-05-08 16:02 56.14248 92.62054 2191 ft 139 kts 293°
2026-05-08 16:02 56.14631 92.60456 2009 ft 139 kts 292°
2026-05-08 16:03 56.15014 92.58859 1816 ft 140 kts 292°
2026-05-08 16:03 56.15400 92.57251 1604 ft 140 kts 292°
2026-05-08 16:03 56.15763 92.55680 1430 ft 140 kts 291°
2026-05-08 16:03 56.16017 92.54609 1302 ft 140 kts 294°
2026-05-08 16:04 56.16418 92.53018 1120 ft 140 kts 294°
2026-05-08 16:04 56.16800 92.51420 960 ft 136 kts 294°
2026-05-08 16:04 56.17202 92.49726 953 ft 84 kts 294°
2026-05-08 16:04 56.17335 92.49170 953 ft 57 kts 293°
2026-05-08 16:05 56.17434 92.48783 952 ft 23 kts 310°
2026-05-08 16:05 56.17551 92.48625 953 ft 18 kts 323°
2026-05-08 16:05 56.17569 92.48600 955 ft 0 kts 322°
2026-05-08 16:05 56.17574 92.48594 952 ft 3 kts 323°
2026-05-08 16:06 56.17596 92.48565 955 ft 3 kts 324°
2026-05-08 16:06 56.17621 92.48534 955 ft 5 kts 324°
2026-05-08 16:06 56.17646 92.48502 954 ft 4 kts 325°
2026-05-08 16:06 56.17673 92.48469 955 ft 8 kts 326°
2026-05-08 16:07 56.17738 92.48407 954 ft 11 kts 359°
2026-05-08 16:07 56.17804 92.48436 955 ft 8 kts 23°
2026-05-08 16:07 56.17864 92.48455 953 ft 11 kts 333°
2026-05-08 16:07 56.17913 92.48394 954 ft 8 kts 349°
2026-05-08 16:08 56.17953 92.48417 955 ft 3 kts 24°
2026-05-08 16:08 56.17964 92.48425 954 ft 1 kts 24°
2026-05-08 16:08 56.17968 92.48429 954 ft 1 kts 24°
2026-05-08 16:08 56.17974 92.48434 955 ft 0 kts 24°